Regional Weather Roundup
Issued by NWS

Home | Current Version | Previous Version | Text Only | Print | Product List | Glossary Off
Versions: 1 2 3 4 5 6 7 8 9 10 11 12 13 14 15 16 17 18 19 20 21 22 23 24 25 26 27 28 29 30 31 32 33 34 35 36 37 38 39 40 41 42 43 44 45 46 47 48 49 50

000
ASUS44 KMEG 311000
RWRTN
TENNESSEE HOURLY STATE WEATHER ROUNDUP
NATIONAL WEATHER SERVICE MEMPHIS TN
500 AM CDT FRI JUL 31 2015

TNZ002-004-019-021-049-052-054-088>092-311100-
WEST TENNESSEE

CITY           SKY/WX    TMP DP  RH WIND       PRES   REMARKS
MEMPHIS INTL   PTCLDY    74  63  68 N5        30.08R
NWS MEMPHIS      N/A     69 N/A N/A MISG        N/A
JACKSON        PTCLDY    66  62  87 N3        30.08S
DYERSBURG        N/A    N/A N/A N/A MISG        N/A
PARIS          CLEAR     61  61 100 CALM      30.10S
LEXINGTON      CLEAR     64  64 100 N3        30.07S
$$

TNZ008-025-027-028-033-062-065-066-311100-
NORTH MIDDLE TENNESSEE

CITY           SKY/WX    TMP DP  RH WIND       PRES   REMARKS
NASHVILLE      CLEAR     69  62  78 CALM      30.08R
CLARKSVILLE    CLEAR     64  63  96 W3        30.08R
CROSSVILLE     PTCLDY    62  57  83 CALM      30.11S
$$

TNZ061-075-076-078-094-096-097-311100-
SOUTH MIDDLE TENNESSEE

CITY           SKY/WX    TMP DP  RH WIND       PRES   REMARKS
FAYETTEVILLE   CLEAR     64  59  82 NE7       30.06S
TULLAHOMA      CLEAR     66  57  72 CALM      30.08S
WINCHESTER     CLEAR     61  61 100 CALM      30.07R
MCMINNVILLE    CLEAR     61  61 100 CALM      30.08R
COLUMBIA       CLEAR     64  64 100 CALM      30.06S
SHELBYVILLE    CLEAR     63  63 100 N3        30.08R
$$

TNZ017-018-042-046-047-311100-
NORTHEAST TENNESSEE

CITY           SKY/WX    TMP DP  RH WIND       PRES   REMARKS
TRI CITIES     CLEAR     61  60  97 CALM      30.07S
ELIZABETHTON   SUNNY     59  59 100 CALM      30.08S
$$

TNZ012-013-036-069-073-074-311100-
CENTRAL EAST TENNESSEE

CITY           SKY/WX    TMP DP  RH WIND       PRES   REMARKS
KNOXVILLE      PTCLDY    70  62  76 N6        30.04S
OAK RIDGE      CLEAR     65  61  87 CALM      30.06S
GATLINBURG     PTSUNNY   66  64  94 CALM      30.05R
$$

TNZ083-085-099-311100-
SOUTHEAST TENNESSEE

CITY           SKY/WX    TMP DP  RH WIND       PRES   REMARKS
CHATTANOOGA    CLEAR     73  59  61 N10       30.02S
$$

SKY/WX REPORTED AS FAIR MEANS FEW OR NO CLOUDS BELOW
12 THOUSAND FEET.



USA.gov is the U.S. government's official web portal to all federal, state and local government web resources and services.